| time (UTC) | temp F | wind direction | speed knots | gust knots | rain 1hr in | rain 24hr in | rain mn in | humidity % | barometer mb |
| 20260506123057 | 51 | 0 | 0.0 | 0.9 | 0.00 | 0.00 | 0.00 | 95 | 1018.2 |
| 20260506122545 | 51 | 0 | 0.0 | 0.9 | 0.00 | 0.00 | 0.00 | 95 | 1018.3 |
| 20260506122045 | 51 | 0 | 0.0 | 0.9 | 0.00 | 0.00 | 0.00 | 95 | 1018.3 |
| 20260506121556 | 51 | 0 | 0.0 | 0.9 | 0.00 | 0.00 | 0.00 | 95 | 1018.3 |
| 20260506121045 | 51 | 0 | 0.0 | 1.7 | 0.00 | 0.00 | 0.00 | 95 | 1018.4 |
| 20260506120545 | 51 | 0 | 0.0 | 2.6 | 0.00 | 0.00 | 0.00 | 95 | 1018.4 |
| 20260506115544 | 51 | 214 | 0.0 | 1.7 | 0.00 | 0.00 | 0.00 | 95 | 1018.2 |
| 20260506115046 | 51 | 0 | 0.0 | 1.7 | 0.00 | 0.00 | 0.00 | 95 | 1018.2 |
| 20260506114550 | 51 | 0 | 0.0 | 1.7 | 0.00 | 0.00 | 0.00 | 95 | 1018.2 |
| 20260506114051 | 51 | 0 | 0.0 | 1.7 | 0.00 | 0.00 | 0.00 | 95 | 1018.1 |
| 20260506113546 | 51 | 214 | 0.0 | 0.9 | 0.00 | 0.00 | 0.00 | 95 | 1018.1 |
| 20260506113051 | 51 | 0 | 0.0 | 0.9 | 0.00 | 0.00 | 0.00 | 95 | 1018.0 |
| 20260506112549 | 51 | 0 | 0.0 | 0.9 | 0.00 | 0.00 | 0.00 | 95 | 1018.0 |
| 20260506112044 | 51 | 0 | 0.0 | 0.9 | 0.00 | 0.00 | 0.00 | 95 | 1018.0 |
| 20260506111553 | 51 | 0 | 0.0 | 0.0 | 0.00 | 0.00 | 0.00 | 95 | 1017.9 |
| 20260506111047 | 51 | 0 | 0.0 | 0.0 | 0.00 | 0.00 | 0.00 | 95 | 1017.9 |
| 20260506110547 | 50 | 0 | 0.0 | 0.0 | 0.00 | 0.00 | 0.00 | 95 | 1017.7 |
| 20260506110100 | 50 | 0 | 0.0 | 0.0 | 0.00 | 0.00 | 0.00 | 95 | 1017.7 |
| 20260506105546 | 50 | 0 | 0.0 | 0.0 | 0.00 | 0.00 | 0.00 | 95 | 1017.6 |
| 20260506105047 | 50 | 0 | 0.0 | 0.0 | 0.00 | 0.00 | 0.00 | 95 | 1017.5 |
| 20260506104606 | 50 | 0 | 0.0 | 0.0 | 0.00 | 0.00 | 0.00 | 95 | 1017.6 |
| 20260506104044 | 50 | 0 | 0.0 | 0.0 | 0.00 | 0.00 | 0.00 | 95 | 1017.5 |
| 20260506103547 | 50 | 0 | 0.0 | 0.0 | 0.00 | 0.00 | 0.00 | 95 | 1017.4 |
| 20260506103050 | 50 | 0 | 0.0 | 0.0 | 0.00 | 0.00 | 0.00 | 95 | 1017.4 |
| 20260506102551 | 50 | 0 | 0.0 | 0.0 | 0.00 | 0.00 | 0.00 | 95 | 1017.1 |
| 20260506102049 | 50 | 0 | 0.0 | 0.0 | 0.00 | 0.00 | 0.00 | 95 | 1017.2 |
| 20260506101553 | 50 | 0 | 0.0 | 0.0 | 0.00 | 0.00 | 0.00 | 95 | 1017.3 |
| 20260506101046 | 50 | 0 | 0.0 | 0.0 | 0.00 | 0.00 | 0.00 | 95 | 1017.2 |
| 20260506100547 | 49 | 0 | 0.0 | 0.0 | 0.00 | 0.00 | 0.00 | 95 | 1017.2 |
| 20260506095548 | 49 | 0 | 0.0 | 0.0 | 0.00 | 0.00 | 0.00 | 95 | 1017.3 |
| 20260506095046 | 49 | 0 | 0.0 | 0.0 | 0.00 | 0.00 | 0.00 | 95 | 1017.2 |
| 20260506094602 | 49 | 0 | 0.0 | 0.0 | 0.00 | 0.00 | 0.00 | 95 | 1017.1 |
| 20260506094048 | 49 | 0 | 0.0 | 0.9 | 0.00 | 0.00 | 0.00 | 95 | 1017.1 |
| 20260506093545 | 49 | 0 | 0.0 | 0.9 | 0.00 | 0.00 | 0.00 | 95 | 1017.1 |
| 20260506093054 | 49 | 215 | 0.0 | 0.9 | 0.00 | 0.00 | 0.00 | 95 | 1017.0 |
| 20260506092545 | 49 | 0 | 0.0 | 0.0 | 0.00 | 0.00 | 0.00 | 94 | 1017.0 |
| 20260506092045 | 49 | 0 | 0.0 | 0.0 | 0.00 | 0.00 | 0.00 | 94 | 1017.0 |
| 20260506091552 | 49 | 0 | 0.0 | 0.0 | 0.00 | 0.00 | 0.00 | 94 | 1017.1 |
| 20260506091047 | 49 | 0 | 0.0 | 0.0 | 0.00 | 0.00 | 0.00 | 95 | 1017.0 |
| 20260506090547 | 49 | 0 | 0.0 | 0.0 | 0.00 | 0.00 | 0.00 | 94 | 1017.1 |
| 20260506090050 | 49 | 0 | 0.0 | 0.0 | 0.00 | 0.00 | 0.00 | 94 | 1017.1 |
| 20260506085547 | 49 | 0 | 0.0 | 0.0 | 0.00 | 0.00 | 0.00 | 94 | 1017.0 |
| 20260506085047 | 49 | 0 | 0.0 | 0.0 | 0.00 | 0.00 | 0.00 | 94 | 1016.9 |
| 20260506084618 | 49 | 0 | 0.0 | 0.0 | 0.00 | 0.00 | 0.00 | 94 | 1016.8 |
| 20260506084046 | 49 | 0 | 0.0 | 0.0 | 0.00 | 0.00 | 0.00 | 94 | 1016.8 |
| 20260506083546 | 49 | 0 | 0.0 | 0.0 | 0.00 | 0.00 | 0.00 | 94 | 1016.6 |
| 20260506083051 | 49 | 0 | 0.0 | 0.0 | 0.00 | 0.00 | 0.00 | 94 | 1016.6 |
| 20260506082545 | 49 | 0 | 0.0 | 0.0 | 0.00 | 0.00 | 0.00 | 94 | 1016.6 |
| 20260506082045 | 49 | 0 | 0.0 | 0.0 | 0.00 | 0.00 | 0.00 | 94 | 1016.6 |
| 20260506081557 | 49 | 0 | 0.0 | 0.0 | 0.00 | 0.00 | 0.00 | 94 | 1016.6 |
| 20260506081046 | 50 | 0 | 0.0 | 0.0 | 0.00 | 0.00 | 0.00 | 94 | 1016.6 |
| 20260506080546 | 50 | 0 | 0.0 | 0.0 | 0.00 | 0.00 | 0.00 | 93 | 1016.6 |
| 20260506073054 | 50 | 0 | 0.0 | 0.0 | 0.00 | 0.00 | 0.00 | 93 | 1016.3 |
| 20260506072547 | 51 | 0 | 0.0 | 0.0 | 0.00 | 0.00 | 0.00 | 93 | 1016.2 |
| 20260506072047 | 51 | 0 | 0.0 | 0.0 | 0.00 | 0.00 | 0.00 | 93 | 1016.3 |
| 20260506071557 | 51 | 0 | 0.0 | 0.0 | 0.00 | 0.00 | 0.00 | 93 | 1016.2 |
| 20260506071046 | 51 | 0 | 0.0 | 0.0 | 0.00 | 0.00 | 0.00 | 93 | 1016.3 |
| 20260506070546 | 51 | 0 | 0.0 | 0.0 | 0.00 | 0.00 | 0.00 | 92 | 1016.3 |
| 20260506062045 | 52 | 0 | 0.0 | 0.0 | 0.00 | 0.00 | 0.00 | 92 | 1016.2 |
| 20260506061601 | 52 | 0 | 0.0 | 0.0 | 0.00 | 0.00 | 0.00 | 92 | 1016.1 |
| 20260506061045 | 52 | 0 | 0.0 | 0.0 | 0.00 | 0.00 | 0.00 | 91 | 1016.0 |
| 20260506060547 | 53 | 0 | 0.0 | 0.0 | 0.00 | 0.00 | 0.00 | 91 | 1016.0 |
| 20260506051045 | 54 | 0 | 0.0 | 0.0 | 0.00 | 0.00 | 0.00 | 89 | 1015.5 |
| 20260506050545 | 54 | 0 | 0.0 | 0.0 | 0.00 | 0.00 | 0.00 | 89 | 1015.4 |
| 20260506045044 | 55 | 0 | 0.0 | 0.0 | 0.00 | 0.00 | 0.00 | 88 | 1015.4 |
| 20260506044553 | 56 | 0 | 0.0 | 0.0 | 0.00 | 0.00 | 0.00 | 87 | 1015.3 |
| 20260506044047 | 56 | 0 | 0.0 | 0.0 | 0.00 | 0.00 | 0.00 | 87 | 1015.4 |
| 20260506043547 | 56 | 0 | 0.0 | 0.0 | 0.00 | 0.00 | 0.00 | 86 | 1015.4 |
| 20260506043050 | 57 | 0 | 0.0 | 0.0 | 0.00 | 0.00 | 0.00 | 86 | 1015.3 |
| 20260506042547 | 57 | 0 | 0.0 | 0.0 | 0.00 | 0.00 | 0.00 | 85 | 1015.2 |
| 20260506042047 | 57 | 0 | 0.0 | 0.0 | 0.00 | 0.00 | 0.00 | 85 | 1015.2 |
| 20260506041605 | 58 | 0 | 0.0 | 0.9 | 0.00 | 0.00 | 0.00 | 84 | 1015.1 |
| 20260506041048 | 58 | 0 | 0.0 | 1.7 | 0.00 | 0.00 | 0.00 | 84 | 1015.0 |
| 20260506040545 | 58 | 0 | 0.0 | 1.7 | 0.00 | 0.00 | 0.00 | 84 | 1015.0 |
| 20260506040100 | 58 | 0 | 0.0 | 0.9 | 0.00 | 0.00 | 0.00 | 83 | 1014.9 |
| 20260506035545 | 59 | 0 | 0.0 | 2.6 | 0.00 | 0.00 | 0.00 | 83 | 1014.9 |
| 20260506035046 | 59 | 0 | 0.0 | 2.6 | 0.00 | 0.00 | 0.00 | 83 | 1015.0 |
| 20260506034556 | 59 | 0 | 0.0 | 2.6 | 0.00 | 0.00 | 0.00 | 82 | 1015.0 |
| 20260506034043 | 59 | 0 | 0.0 | 0.9 | 0.00 | 0.00 | 0.00 | 82 | 1015.0 |
| 20260506033545 | 59 | 0 | 0.0 | 0.9 | 0.00 | 0.00 | 0.00 | 81 | 1014.9 |
| 20260506033052 | 60 | 0 | 0.0 | 0.0 | 0.00 | 0.00 | 0.00 | 80 | 1014.9 |
| 20260506032545 | 60 | 0 | 0.0 | 0.0 | 0.00 | 0.00 | 0.00 | 79 | 1014.8 |
| 20260506032048 | 61 | 0 | 0.0 | 0.9 | 0.00 | 0.00 | 0.00 | 78 | 1014.8 |
| 20260506031555 | 62 | 0 | 0.0 | 0.9 | 0.00 | 0.00 | 0.00 | 76 | 1014.7 |
| 20260506031047 | 63 | 0 | 0.0 | 0.9 | 0.00 | 0.00 | 0.00 | 75 | 1014.8 |
| 20260506030547 | 63 | 0 | 0.0 | 1.7 | 0.00 | 0.00 | 0.00 | 74 | 1014.7 |
| 20260506030054 | 64 | 0 | 0.0 | 1.7 | 0.00 | 0.00 | 0.00 | 74 | 1014.7 |
| 20260506025547 | 64 | 0 | 0.0 | 1.7 | 0.00 | 0.00 | 0.00 | 73 | 1014.6 |
| 20260506025051 | 64 | 190 | 0.0 | 2.6 | 0.00 | 0.00 | 0.00 | 71 | 1014.6 |
| 20260506024556 | 65 | 190 | 0.0 | 2.6 | 0.00 | 0.00 | 0.00 | 71 | 1014.6 |
| 20260506024045 | 65 | 190 | 0.9 | 3.5 | 0.00 | 0.00 | 0.00 | 71 | 1014.6 |
| 20260506023545 | 65 | 0 | 0.0 | 3.5 | 0.00 | 0.00 | 0.00 | 71 | 1014.6 |
| 20260506023107 | 65 | 222 | 0.9 | 3.5 | 0.00 | 0.00 | 0.00 | 70 | 1014.6 |
| 20260506022544 | 65 | 212 | 0.9 | 4.3 | 0.00 | 0.00 | 0.00 | 70 | 1014.6 |
| 20260506022047 | 65 | 235 | 1.7 | 4.3 | 0.00 | 0.00 | 0.00 | 69 | 1014.6 |
| 20260506021611 | 65 | 0 | 0.9 | 3.5 | 0.00 | 0.00 | 0.00 | 69 | 1014.6 |
| 20260506021049 | 65 | 0 | 0.0 | 3.5 | 0.00 | 0.00 | 0.00 | 70 | 1014.6 |
| 20260506020545 | 65 | 0 | 1.7 | 4.3 | 0.00 | 0.00 | 0.00 | 69 | 1014.7 |
| 20260506020048 | 65 | 0 | 0.0 | 4.3 | 0.00 | 0.00 | 0.00 | 69 | 1014.6 |
| 20260506015548 | 66 | 0 | 0.0 | 6.1 | 0.00 | 0.00 | 0.00 | 68 | 1014.6 |
| 20260506015051 | 66 | 219 | 0.9 | 6.1 | 0.00 | 0.00 | 0.00 | 69 | 1014.5 |
| 20260506014553 | 66 | 224 | 1.7 | 6.1 | 0.00 | 0.00 | 0.00 | 67 | 1014.6 |
| 20260506014050 | 67 | 214 | 1.7 | 4.3 | 0.00 | 0.00 | 0.00 | 67 | 1014.5 |
| 20260506013547 | 67 | 0 | 0.0 | 4.3 | 0.00 | 0.00 | 0.00 | 68 | 1014.5 |
| 20260506013101 | 66 | 177 | 0.9 | 6.1 | 0.00 | 0.00 | 0.00 | 67 | 1014.5 |
| 20260506012547 | 67 | 0 | 2.6 | 6.1 | 0.00 | 0.00 | 0.00 | 67 | 1014.4 |
| 20260506012047 | 67 | 173 | 0.0 | 3.5 | 0.00 | 0.00 | 0.00 | 68 | 1014.4 |
| 20260506011612 | 66 | 338 | 0.0 | 4.3 | 0.00 | 0.00 | 0.00 | 68 | 1014.4 |
| 20260506011046 | 66 | 0 | 0.0 | 7.0 | 0.00 | 0.00 | 0.00 | 69 | 1014.4 |
| 20260506010546 | 66 | 0 | 2.6 | 7.0 | 0.00 | 0.00 | 0.00 | 67 | 1014.5 |
| 20260506010059 | 67 | 221 | 1.7 | 7.8 | 0.00 | 0.00 | 0.00 | 66 | 1014.6 |
| 20260506005550 | 67 | 226 | 0.9 | 7.8 | 0.00 | 0.00 | 0.00 | 66 | 1014.5 |
| 20260506005047 | 68 | 184 | 0.9 | 5.2 | 0.00 | 0.00 | 0.00 | 64 | 1014.5 |
| 20260506004553 | 68 | 0 | 0.0 | 7.8 | 0.00 | 0.00 | 0.00 | 67 | 1014.5 |
| 20260506004047 | 67 | 155 | 1.7 | 9.6 | 0.00 | 0.00 | 0.00 | 67 | 1014.6 |
| 20260506003547 | 67 | 174 | 2.6 | 9.6 | 0.00 | 0.00 | 0.00 | 68 | 1014.6 |
| 20260506003055 | 66 | 173 | 0.9 | 4.3 | 0.00 | 0.00 | 0.00 | 69 | 1014.6 |
| 20260506002547 | 67 | 48 | 0.0 | 4.3 | 0.00 | 0.00 | 0.00 | 69 | 1014.6 |
| 20260506002047 | 66 | 155 | 0.9 | 7.0 | 0.00 | 0.00 | 0.00 | 69 | 1014.7 |
| 20260506001555 | 65 | 267 | 2.6 | 7.0 | 0.00 | 0.00 | 0.00 | 69 | 1014.7 |
| 20260506001048 | 65 | 203 | 2.6 | 7.0 | 0.00 | 0.00 | 0.00 | 70 | 1014.8 |
| 20260506000547 | 65 | 202 | 1.7 | 5.2 | 0.00 | 0.00 | 0.00 | 70 | 1014.8 |
| 20260506000054 | 65 | 220 | 1.7 | 5.2 | 0.00 | 0.00 | 0.00 | 69 | 1014.8 |
| 20260505235548 | 65 | 236 | 1.7 | 5.2 | 0.00 | 0.00 | 0.00 | 70 | 1015.0 |
| 20260505235048 | 64 | 255 | 0.9 | 7.0 | 0.00 | 0.00 | 0.00 | 70 | 1015.0 |
| 20260505234551 | 64 | 215 | 1.7 | 7.8 | 0.00 | 0.00 | 0.00 | 68 | 1015.0 |
| 20260505234045 | 64 | 225 | 2.6 | 7.8 | 0.00 | 0.00 | 0.00 | 71 | 1015.1 |
| 20260505233544 | 64 | 0 | 0.0 | 5.2 | 0.00 | 0.00 | 0.00 | 72 | 1015.1 |
| 20260505233052 | 64 | 159 | 1.7 | 6.1 | 0.00 | 0.00 | 0.00 | 72 | 1015.1 |
| 20260505232547 | 63 | 195 | 2.6 | 7.0 | 0.00 | 0.00 | 0.00 | 73 | 1015.2 |
| 20260505232048 | 63 | 219 | 0.0 | 7.0 | 0.00 | 0.00 | 0.00 | 75 | 1015.2 |
| 20260505231608 | 63 | 247 | 3.5 | 6.1 | 0.00 | 0.00 | 0.00 | 71 | 1015.3 |
| 20260505231045 | 63 | 194 | 0.0 | 6.1 | 0.00 | 0.00 | 0.00 | 74 | 1015.3 |
| 20260505230545 | 63 | 152 | 1.7 | 7.8 | 0.00 | 0.00 | 0.00 | 73 | 1015.4 |
| 20260505230053 | 62 | 182 | 2.6 | 7.8 | 0.00 | 0.00 | 0.00 | 75 | 1015.5 |
| 20260505225546 | 62 | 199 | 1.7 | 6.1 | 0.00 | 0.00 | 0.00 | 75 | 1015.6 |
| 20260505225046 | 61 | 214 | 3.5 | 6.1 | 0.00 | 0.00 | 0.00 | 76 | 1015.6 |
| 20260505224603 | 61 | 214 | 1.7 | 5.2 | 0.00 | 0.00 | 0.00 | 77 | 1015.6 |
| 20260505224045 | 61 | 215 | 2.6 | 5.2 | 0.00 | 0.00 | 0.00 | 76 | 1015.7 |
| 20260505223545 | 61 | 203 | 0.9 | 6.1 | 0.00 | 0.00 | 0.00 | 76 | 1015.7 |
| 20260505223057 | 61 | 211 | 2.6 | 6.1 | 0.00 | 0.00 | 0.00 | 77 | 1015.7 |
| 20260505222550 | 61 | 252 | 2.6 | 7.8 | 0.00 | 0.00 | 0.00 | 77 | 1015.7 |
| 20260505222046 | 61 | 191 | 1.7 | 7.8 | 0.00 | 0.00 | 0.00 | 76 | 1015.8 |
| 20260505221551 | 61 | 213 | 1.7 | 5.2 | 0.00 | 0.00 | 0.00 | 76 | 1015.8 |
| 20260505221047 | 61 | 147 | 2.6 | 7.0 | 0.00 | 0.00 | 0.00 | 76 | 1015.8 |
| 20260505220547 | 61 | 0 | 1.7 | 7.0 | 0.00 | 0.00 | 0.00 | 77 | 1015.8 |
| 20260505220100 | 61 | 226 | 2.6 | 6.1 | 0.00 | 0.00 | 0.00 | 77 | 1015.8 |
| 20260505215546 | 61 | 118 | 2.6 | 6.1 | 0.00 | 0.00 | 0.00 | 77 | 1015.8 |
| 20260505215045 | 60 | 145 | 1.7 | 7.0 | 0.00 | 0.00 | 0.00 | 78 | 1015.9 |
| 20260505214557 | 60 | 163 | 2.6 | 7.0 | 0.00 | 0.00 | 0.00 | 78 | 1015.9 |
| 20260505214045 | 60 | 173 | 2.6 | 7.0 | 0.00 | 0.00 | 0.00 | 79 | 1015.8 |
| 20260505213544 | 60 | 186 | 2.6 | 7.0 | 0.00 | 0.00 | 0.00 | 79 | 1015.8 |
| 20260505213054 | 60 | 164 | 2.6 | 7.0 | 0.00 | 0.00 | 0.00 | 79 | 1015.9 |
| 20260505212546 | 59 | 188 | 1.7 | 7.0 | 0.00 | 0.00 | 0.00 | 80 | 1015.9 |
| 20260505212045 | 59 | 184 | 2.6 | 7.0 | 0.00 | 0.00 | 0.00 | 80 | 1015.9 |
| 20260505211549 | 59 | 222 | 2.6 | 7.0 | 0.00 | 0.00 | 0.00 | 80 | 1015.9 |
| 20260505211046 | 59 | 212 | 2.6 | 7.0 | 0.00 | 0.00 | 0.00 | 80 | 1016.0 |
| 20260505210544 | 60 | 259 | 0.9 | 6.1 | 0.00 | 0.00 | 0.00 | 80 | 1016.0 |
| 20260505210050 | 59 | 226 | 1.7 | 6.1 | 0.00 | 0.00 | 0.00 | 80 | 1016.0 |
| 20260505205546 | 59 | 213 | 0.9 | 6.1 | 0.00 | 0.00 | 0.00 | 80 | 1016.0 |
| 20260505205047 | 59 | 232 | 0.9 | 5.2 | 0.00 | 0.00 | 0.00 | 81 | 1016.1 |
| 20260505204551 | 59 | 155 | 1.7 | 5.2 | 0.00 | 0.00 | 0.00 | 81 | 1016.0 |
| 20260505204047 | 59 | 215 | 1.7 | 5.2 | 0.00 | 0.00 | 0.00 | 81 | 1016.1 |
| 20260505203545 | 59 | 214 | 0.9 | 7.0 | 0.00 | 0.00 | 0.00 | 82 | 1016.2 |
| 20260505203110 | 58 | 189 | 1.7 | 7.8 | 0.00 | 0.00 | 0.00 | 81 | 1016.2 |
| 20260505202546 | 59 | 207 | 2.6 | 7.8 | 0.00 | 0.00 | 0.00 | 81 | 1016.1 |
| 20260505202047 | 59 | 195 | 2.6 | 7.8 | 0.00 | 0.00 | 0.00 | 81 | 1016.1 |
| 20260505201601 | 59 | 168 | 1.7 | 6.1 | 0.00 | 0.00 | 0.00 | 81 | 1016.1 |
| 20260505201047 | 58 | 228 | 0.9 | 4.3 | 0.00 | 0.00 | 0.00 | 84 | 1016.1 |
| 20260505200547 | 58 | 217 | 0.9 | 6.1 | 0.00 | 0.00 | 0.00 | 83 | 1016.0 |
| 20260505200054 | 58 | 168 | 2.6 | 6.1 | 0.00 | 0.00 | 0.00 | 83 | 1016.1 |
| 20260505195548 | 58 | 231 | 1.7 | 6.1 | 0.00 | 0.00 | 0.00 | 83 | 1016.1 |
| 20260505195046 | 57 | 216 | 0.9 | 6.1 | 0.00 | 0.00 | 0.00 | 84 | 1016.1 |
| 20260505194557 | 57 | 223 | 2.6 | 6.1 | 0.00 | 0.00 | 0.00 | 84 | 1016.2 |
| 20260505194046 | 57 | 246 | 2.6 | 6.1 | 0.00 | 0.00 | 0.00 | 84 | 1016.1 |
| 20260505193545 | 57 | 209 | 1.7 | 6.1 | 0.00 | 0.00 | 0.00 | 84 | 1016.1 |
| 20260505193053 | 57 | 183 | 0.9 | 7.0 | 0.00 | 0.00 | 0.00 | 84 | 1016.1 |
| 20260505192547 | 57 | 0 | 0.9 | 7.0 | 0.00 | 0.00 | 0.00 | 84 | 1016.1 |
| 20260505192045 | 57 | 248 | 2.6 | 6.1 | 0.00 | 0.00 | 0.00 | 83 | 1016.0 |
| 20260505191608 | 57 | 239 | 1.7 | 5.2 | 0.00 | 0.00 | 0.00 | 84 | 1016.0 |
| 20260505191046 | 57 | 221 | 0.0 | 5.2 | 0.00 | 0.00 | 0.00 | 84 | 1016.0 |
| 20260505190547 | 57 | 205 | 1.7 | 4.3 | 0.00 | 0.00 | 0.00 | 84 | 1016.0 |
| 20260505190051 | 57 | 0 | 0.9 | 6.1 | 0.00 | 0.00 | 0.00 | 84 | 1016.0 |
| 20260505185547 | 57 | 161 | 2.6 | 7.0 | 0.00 | 0.00 | 0.00 | 84 | 1016.1 |
| 20260505185047 | 57 | 196 | 1.7 | 7.0 | 0.00 | 0.00 | 0.00 | 85 | 1015.9 |
| 20260505184552 | 57 | 205 | 2.6 | 7.0 | 0.00 | 0.00 | 0.00 | 85 | 1016.0 |
| 20260505184047 | 57 | 163 | 1.7 | 6.1 | 0.00 | 0.00 | 0.00 | 85 | 1015.9 |
| 20260505183548 | 57 | 212 | 1.7 | 6.1 | 0.00 | 0.00 | 0.00 | 85 | 1015.9 |
| 20260505183055 | 57 | 206 | 0.9 | 6.1 | 0.00 | 0.00 | 0.00 | 84 | 1015.9 |
| 20260505182544 | 57 | 203 | 1.7 | 5.2 | 0.00 | 0.00 | 0.00 | 84 | 1015.9 |
| 20260505182046 | 57 | 0 | 1.7 | 5.2 | 0.00 | 0.00 | 0.00 | 84 | 1015.8 |
| 20260505181553 | 57 | 217 | 0.9 | 6.1 | 0.00 | 0.00 | 0.00 | 85 | 1015.8 |
| 20260505181045 | 57 | 172 | 0.9 | 6.1 | 0.00 | 0.00 | 0.00 | 85 | 1015.8 |
| 20260505180543 | 56 | 144 | 1.7 | 5.2 | 0.00 | 0.00 | 0.00 | 86 | 1015.8 |
| 20260505175545 | 56 | 167 | 1.7 | 6.1 | 0.00 | 0.00 | 0.00 | 86 | 1015.8 |
| 20260505175045 | 56 | 167 | 2.6 | 6.1 | 0.00 | 0.00 | 0.00 | 86 | 1015.8 |
| 20260505174605 | 56 | 175 | 0.9 | 5.2 | 0.00 | 0.00 | 0.00 | 87 | 1015.9 |
| 20260505174047 | 56 | 213 | 1.7 | 7.0 | 0.00 | 0.00 | 0.00 | 87 | 1015.9 |
| 20260505173549 | 56 | 199 | 2.6 | 7.0 | 0.00 | 0.00 | 0.00 | 87 | 1015.9 |
| 20260505173057 | 56 | 142 | 2.6 | 6.1 | 0.00 | 0.00 | 0.00 | 87 | 1015.8 |
| 20260505172545 | 56 | 0 | 0.9 | 6.1 | 0.00 | 0.00 | 0.00 | 87 | 1015.8 |
| 20260505172044 | 55 | 180 | 1.7 | 6.1 | 0.00 | 0.00 | 0.00 | 87 | 1015.7 |
| 20260505171551 | 55 | 196 | 2.6 | 5.2 | 0.00 | 0.00 | 0.00 | 87 | 1015.8 |
| 20260505171047 | 55 | 176 | 0.9 | 5.2 | 0.00 | 0.00 | 0.00 | 87 | 1015.8 |
| 20260505170543 | 55 | 0 | 1.7 | 4.3 | 0.00 | 0.00 | 0.00 | 87 | 1015.8 |
| 20260505170107 | 55 | 225 | 0.9 | 3.5 | 0.00 | 0.00 | 0.00 | 87 | 1015.8 |
| 20260505165546 | 55 | 146 | 0.0 | 2.6 | 0.00 | 0.00 | 0.00 | 88 | 1015.8 |
| 20260505165050 | 55 | 0 | 0.9 | 4.3 | 0.00 | 0.00 | 0.00 | 88 | 1015.8 |
| 20260505164553 | 55 | 202 | 0.9 | 5.2 | 0.00 | 0.00 | 0.00 | 88 | 1015.8 |
| 20260505164046 | 55 | 213 | 2.6 | 5.2 | 0.00 | 0.00 | 0.00 | 87 | 1015.8 |
| 20260505163548 | 55 | 156 | 0.9 | 4.3 | 0.00 | 0.00 | 0.00 | 88 | 1015.7 |
| 20260505163052 | 55 | 164 | 0.9 | 4.3 | 0.00 | 0.00 | 0.00 | 88 | 1015.7 |
| 20260505162543 | 55 | 172 | 0.9 | 4.3 | 0.00 | 0.00 | 0.00 | 88 | 1015.7 |
| 20260505162047 | 55 | 0 | 0.9 | 5.2 | 0.00 | 0.00 | 0.00 | 88 | 1015.7 |
| 20260505161610 | 55 | 165 | 0.0 | 5.2 | 0.00 | 0.00 | 0.00 | 88 | 1015.7 |
| 20260505161046 | 55 | 157 | 0.9 | 4.3 | 0.00 | 0.00 | 0.00 | 88 | 1015.7 |
| 20260505160546 | 55 | 217 | 1.7 | 6.1 | 0.00 | 0.00 | 0.00 | 88 | 1015.7 |
| 20260505153100 | 54 | 160 | 1.7 | 5.2 | 0.00 | 0.00 | 0.00 | 90 | 1015.4 |
| 20260505152548 | 54 | 160 | 0.0 | 4.3 | 0.00 | 0.00 | 0.00 | 90 | 1015.5 |
| 20260505152045 | 54 | 161 | 0.9 | 5.2 | 0.00 | 0.00 | 0.00 | 90 | 1015.4 |
| 20260505151601 | 53 | 161 | 0.9 | 5.2 | 0.00 | 0.00 | 0.00 | 90 | 1015.3 |
| 20260505151045 | 53 | 161 | 1.7 | 7.8 | 0.00 | 0.00 | 0.00 | 91 | 1015.2 |
| 20260505150546 | 53 | 168 | 1.7 | 7.8 | 0.00 | 0.00 | 0.00 | 91 | 1015.3 |
| 20260505140545 | 53 | 169 | 0.0 | 4.3 | 0.00 | 0.00 | 0.00 | 92 | 1014.8 |
| 20260505140104 | 53 | 170 | 0.9 | 4.3 | 0.00 | 0.00 | 0.00 | 92 | 1014.7 |
| 20260505124551 | 51 | 167 | 0.9 | 4.3 | 0.00 | 0.00 | 0.00 | 94 | 1013.8 |
| 20260505124047 | 51 | 0 | 0.9 | 4.3 | 0.00 | 0.00 | 0.00 | 94 | 1013.8 |
| 20260505123546 | 51 | 167 | 1.7 | 4.3 | 0.00 | 0.00 | 0.00 | 94 | 1013.7 |